�N����,����,�~����,�C��,���x,�C��,����,���ϕ���,�ő�u�ԕ���,�ő厞����,���˗�,�I�_���x,�n�����x,�ő啗���N��,DTYPE
"17/12/12","00:10",0.0,2.0,71.9,1007.6,257.7,2.8,5.4,236.5,0.00,-2.5,6.4,"00:08:32",1
"17/12/12","00:20",0.0,1.8,71.1,1007.4,321.0,3.1,5.4,323.4,0.00,-2.8,6.2,"00:14:32",1
"17/12/12","00:30",0.0,1.5,71.9,1007.8,306.9,2.7,4.9,330.3,0.00,-3.0,6.2,"00:21:36",1
"17/12/12","00:40",0.0,1.8,68.6,1007.6,279.3,3.1,5.4,333.5,0.00,-3.3,6.2,"00:39:30",1
"17/12/12","00:50",0.0,2.0,63.0,1007.8,281.9,3.0,5.1,236.5,0.00,-4.3,6.2,"00:42:56",1
"17/12/12","01:00",0.0,1.9,61.3,1008.1,280.5,2.8,5.5,313.3,0.00,-4.7,6.0,"00:53:52",1
"17/12/12","01:10",0.0,2.0,60.4,1007.8,277.4,3.0,4.4,288.3,0.00,-4.8,6.2,"01:08:08",1
"17/12/12","01:20",0.0,1.9,61.9,1008.1,290.6,3.2,4.8,325.1,0.00,-4.6,6.0,"01:10:20",1
"17/12/12","01:30",0.0,1.8,61.7,1008.3,285.4,3.1,5.1,322.9,0.00,-4.7,5.8,"01:26:48",1
"17/12/12","01:40",0.0,1.8,62.7,1008.3,301.5,3.4,4.7,336.1,0.00,-4.5,5.8,"01:36:48",1
"17/12/12","01:50",0.0,1.5,64.3,1008.3,305.4,3.7,6.7,331.0,0.00,-4.5,6.0,"01:45:28",1
"17/12/12","02:00",0.0,1.5,63.8,1008.6,289.7,3.1,5.5,328.4,0.00,-4.6,5.9,"01:57:20",1
"17/12/12","02:10",0.0,1.6,61.5,1008.6,290.1,3.2,4.8,320.3,0.00,-5.0,5.7,"02:05:40",1
"17/12/12","02:20",0.0,1.8,59.2,1009.3,270.2,3.2,6.0,256.9,0.00,-5.3,5.8,"02:10:16",1
"17/12/12","02:30",0.0,1.8,58.4,1009.3,278.1,3.1,5.4,244.6,0.00,-5.4,5.7,"02:27:46",1
"17/12/12","02:40",0.0,1.7,59.1,1009.3,279.0,3.1,5.5,310.3,0.00,-5.4,5.7,"02:36:24",1
"17/12/12","02:50",0.0,1.6,58.5,1009.3,289.0,3.4,5.1,332.5,0.00,-5.6,5.6,"02:41:04",1
"17/12/12","03:00",0.0,1.5,59.0,1009.5,282.5,2.6,5.7,306.4,0.00,-5.6,5.5,"02:59:06",1
"17/12/12","03:10",0.0,1.5,59.9,1010.0,287.4,3.4,8.8,291.1,0.00,-5.4,5.5,"03:04:30",1
"17/12/12","03:20",0.0,1.3,60.4,1009.3,286.9,3.0,6.2,318.6,0.00,-5.5,5.4,"03:15:48",1
"17/12/12","03:30",0.0,1.3,60.5,1009.5,289.8,3.2,5.1,303.7,0.00,-5.5,5.6,"03:22:40",1
"17/12/12","03:40",0.0,1.3,60.4,1009.5,293.4,3.2,6.0,340.1,0.00,-5.5,5.6,"03:31:06",1
"17/12/12","03:50",0.0,1.1,60.8,1009.7,288.7,2.8,5.5,301.7,0.00,-5.6,5.5,"03:43:36",1
"17/12/12","04:00",0.0,1.3,59.9,1009.3,282.5,3.1,5.6,308.4,0.00,-5.6,5.5,"03:51:22",1
"17/12/12","04:10",0.0,1.2,60.0,1009.3,290.4,3.6,7.8,307.0,0.00,-5.7,5.5,"04:08:26",1
"17/12/12","04:20",0.0,1.1,60.4,1009.3,285.8,3.4,5.2,283.1,0.00,-5.7,5.2,"04:15:48",1
"17/12/12","04:30",0.0,1.1,60.5,1009.7,285.3,3.2,6.2,314.5,0.00,-5.6,5.5,"04:21:28",1
"17/12/12","04:40",0.0,1.1,60.4,1010.0,278.8,3.0,5.9,258.4,0.00,-5.7,5.4,"04:38:24",1
"17/12/12","04:50",0.0,1.0,60.6,1010.2,284.3,3.2,5.8,305.2,0.00,-5.7,5.4,"04:46:58",1
"17/12/12","05:00",0.0,1.0,60.7,1010.2,282.8,3.5,6.7,275.0,0.00,-5.7,5.2,"04:52:44",1
"17/12/12","05:10",0.0,0.9,61.0,1010.4,296.1,3.5,5.6,318.4,0.00,-5.7,5.2,"05:09:10",1
"17/12/12","05:20",0.0,0.8,61.4,1010.2,293.3,3.2,5.4,310.4,0.00,-5.7,5.2,"05:13:08",1
"17/12/12","05:30",0.0,0.6,62.2,1010.2,284.3,2.8,3.7,258.7,0.00,-5.8,5.2,"05:24:26",1
"17/12/12","05:40",0.0,0.6,62.8,1010.2,296.3,3.0,5.9,310.9,0.00,-5.6,5.2,"05:35:22",1
"17/12/12","05:50",0.0,0.6,63.1,1010.4,290.5,3.2,5.4,300.7,0.00,-5.6,5.2,"05:46:14",1
"17/12/12","06:00",0.0,0.6,63.5,1010.4,292.9,3.5,6.0,309.3,0.00,-5.5,5.3,"05:53:38",1
"17/12/12","06:10",0.0,0.5,63.7,1010.7,290.1,3.1,5.9,316.4,0.00,-5.5,5.0,"06:02:26",1
"17/12/12","06:20",0.0,0.4,64.2,1010.9,297.5,3.0,5.0,290.0,0.00,-5.5,5.1,"06:13:56",1
"17/12/12","06:30",0.0,0.3,64.6,1010.9,298.1,2.7,4.1,317.8,0.00,-5.5,4.7,"06:20:08",1
"17/12/12","06:40",0.0,0.2,65.4,1011.2,290.6,2.2,4.1,329.2,0.00,-5.5,5.0,"06:32:48",1
"17/12/12","06:50",0.0,0.0,66.0,1011.4,289.1,2.0,3.5,282.3,0.00,-5.5,4.7,"06:42:16",1
"17/12/12","07:00",0.0,0.0,67.1,1011.4,289.4,2.0,3.9,337.2,0.00,-5.3,4.9,"06:56:16",1
"17/12/12","07:10",0.0,0.0,67.4,1011.6,301.3,2.2,4.0,315.3,0.00,-5.3,4.9,"07:07:42",1
"17/12/12","07:20",0.0,0.2,67.3,1011.6,289.1,2.0,4.2,320.6,0.00,-5.1,5.1,"07:18:58",1
"17/12/12","07:30",0.0,0.4,67.0,1012.1,298.4,2.8,4.4,318.9,0.00,-5.0,4.8,"07:29:00",1
"17/12/12","07:40",0.0,0.5,66.6,1012.1,281.7,2.2,4.3,318.2,0.00,-4.9,4.9,"07:30:56",1
"17/12/12","07:50",0.0,0.9,65.1,1012.1,279.3,1.7,2.7,320.7,0.00,-4.9,5.0,"07:49:36",1
"17/12/12","08:00",0.0,1.2,65.0,1012.3,283.9,2.0,3.4,291.8,0.01,-4.6,4.9,"07:50:56",1
"17/12/12","08:10",0.0,1.3,63.4,1012.6,289.5,2.6,4.2,330.1,0.02,-4.8,4.8,"08:03:04",1
"17/12/12","08:20",0.0,1.4,62.4,1012.8,278.0,2.8,5.9,309.4,0.04,-5.0,4.7,"08:11:06",1
"17/12/12","08:30",0.0,1.6,62.4,1013.0,296.1,4.0,6.0,332.2,0.06,-4.8,4.9,"08:25:50",1
"17/12/12","08:40",0.0,2.2,60.9,1013.0,292.9,3.1,3.1,289.6,0.09,-4.5,5.0,"08:31:14",1
"17/12/12","08:50",0.0,2.4,61.4,1013.0,298.6,3.3,3.3,298.6,0.11,-4.2,5.2,"08:49:30",1
"17/12/12","09:00",0.0,2.3,61.5,1013.5,299.9,3.9,5.1,322.9,0.13,-4.3,5.0,"08:59:52",1
"17/12/12","09:10",0.0,2.4,60.7,1013.8,317.8,4.4,4.9,324.4,0.16,-4.4,5.2,"09:09:06",1
"17/12/12","09:20",0.0,2.4,60.3,1013.3,302.8,5.4,6.7,311.3,0.19,-4.5,5.1,"09:14:36",1
"17/12/12","09:30",0.0,2.6,59.2,1013.8,311.7,4.9,6.8,332.7,0.21,-4.5,5.3,"09:28:46",1
"17/12/12","09:40",0.0,3.1,58.5,1013.5,312.9,4.4,8.5,352.5,0.23,-4.2,5.5,"09:32:46",1
"17/12/12","09:50",0.0,3.2,57.7,1013.5,316.7,5.0,7.5,325.6,0.26,-4.3,5.5,"09:40:22",1
"17/12/12","10:00",0.0,3.2,56.9,1013.8,294.5,3.7,6.8,321.7,0.28,-4.5,5.3,"09:52:26",1
"17/12/12","10:10",0.0,3.3,56.8,1013.5,281.0,3.2,6.4,315.2,0.30,-4.4,5.5,"10:08:42",1
"17/12/12","10:20",0.0,3.7,55.9,1013.8,294.8,3.7,9.4,340.0,0.32,-4.2,5.9,"10:12:52",1
"17/12/12","10:30",0.0,4.2,55.5,1013.5,277.0,2.5,3.6,289.8,0.34,-3.9,5.9,"10:26:48",1
"17/12/12","10:40",0.0,4.4,54.4,1013.5,280.8,2.6,4.1,299.0,0.35,-4.0,5.8,"10:32:40",1
"17/12/12","10:50",0.0,4.9,53.4,1013.5,284.0,3.1,9.0,337.6,0.37,-3.7,6.1,"10:42:18",1
"17/12/12","11:00",0.0,4.4,51.7,1013.3,280.3,2.7,5.9,328.7,0.38,-4.6,6.2,"10:50:36",1
"17/12/12","11:10",0.0,4.9,51.4,1013.3,287.1,2.7,4.8,255.1,0.39,-4.2,6.3,"11:07:56",1
"17/12/12","11:20",0.0,4.6,51.9,1013.3,262.1,2.6,4.3,249.6,0.40,-4.4,6.6,"11:17:18",1
"17/12/12","11:30",0.0,5.1,52.6,1012.8,256.2,3.2,6.8,240.5,0.43,-3.7,6.5,"11:27:10",1
"17/12/12","11:40",0.0,5.6,53.4,1012.8,276.1,2.6,6.0,334.4,0.43,-3.1,6.8,"11:35:40",1
"17/12/12","11:50",0.0,5.5,49.4,1012.6,279.2,3.0,5.8,304.9,0.44,-4.2,7.0,"11:47:16",1
"17/12/12","12:00",0.0,5.5,50.0,1012.3,263.2,3.6,7.2,267.3,0.43,-4.1,7.0,"11:52:54",1
"17/12/12","12:10",0.0,5.4,49.2,1012.1,267.7,3.2,5.8,335.0,0.42,-4.4,7.3,"12:02:20",1
"17/12/12","12:20",0.0,6.2,49.2,1012.6,267.6,3.0,6.0,242.7,0.43,-3.6,7.3,"12:15:30",1
"17/12/12","12:30",0.0,5.6,48.0,1012.3,278.0,3.6,6.8,340.6,0.38,-4.5,7.5,"12:24:56",1
"17/12/12","12:40",0.0,5.0,49.8,1012.3,286.3,3.2,6.3,305.1,0.11,-4.6,7.5,"12:32:10",1
"17/12/12","12:50",0.0,6.0,48.6,1011.9,273.5,3.1,4.9,239.2,0.29,-4.0,7.6,"12:46:42",1
"17/12/12","13:00",0.0,6.0,49.3,1011.9,291.1,3.2,6.2,312.2,0.37,-3.8,7.8,"12:57:30",1
"17/12/12","13:10",0.0,6.1,49.7,1011.9,255.2,3.1,7.4,245.9,0.36,-3.6,7.6,"13:06:38",1
"17/12/12","13:20",0.0,5.4,50.0,1012.1,285.2,2.7,5.4,243.8,0.12,-4.1,7.9,"13:10:34",1
"17/12/12","13:30",0.0,5.6,49.6,1011.9,290.1,2.7,5.0,336.5,0.18,-4.1,7.8,"13:20:24",1
"17/12/12","13:40",0.0,5.5,48.5,1011.9,275.2,3.1,4.8,325.3,0.25,-4.5,7.8,"13:31:56",1
"17/12/12","13:50",0.0,5.7,48.8,1011.6,282.3,2.5,4.2,324.2,0.22,-4.2,7.8,"13:42:02",1
"17/12/12","14:00",0.0,5.9,49.1,1012.1,285.7,3.0,6.3,336.2,0.24,-3.9,7.9,"13:52:18",1
"17/12/12","14:10",0.0,6.1,48.4,1012.3,291.1,2.7,4.8,302.7,0.23,-3.9,8.1,"14:02:26",1
"17/12/12","14:20",0.0,5.8,49.2,1011.9,276.5,2.5,3.9,269.5,0.12,-4.0,8.0,"14:13:00",1
"17/12/12","14:30",0.0,5.6,49.0,1012.1,279.5,2.7,4.3,262.9,0.08,-4.2,8.0,"14:21:58",1
"17/12/12","14:40",0.0,5.5,49.8,1011.9,277.8,3.0,5.5,334.8,0.12,-4.1,8.0,"14:38:02",1
"17/12/12","14:50",0.0,5.5,49.8,1011.9,294.1,3.0,5.7,326.0,0.14,-4.1,7.9,"14:47:22",1
"17/12/12","15:00",0.0,5.7,48.2,1011.6,296.8,3.0,5.2,328.9,0.08,-4.4,7.9,"14:50:16",1
"17/12/12","15:10",0.0,5.4,49.4,1011.9,276.4,2.6,4.2,277.7,0.05,-4.3,7.9,"15:07:00",1
"17/12/12","15:20",0.0,5.4,49.4,1011.9,290.8,3.0,4.8,317.2,0.04,-4.3,7.9,"15:11:20",1
"17/12/12","15:30",0.0,5.3,49.2,1011.9,295.9,3.1,5.2,328.7,0.05,-4.5,7.8,"15:21:52",1
"17/12/12","15:40",0.0,5.2,49.9,1012.1,275.0,2.7,4.3,318.1,0.05,-4.4,8.0,"15:39:52",1
"17/12/12","15:50",0.0,5.6,48.5,1012.3,293.9,3.2,6.0,344.2,0.05,-4.4,7.7,"15:48:22",1
"17/12/12","16:00",0.0,5.3,50.1,1012.3,280.5,2.3,3.3,275.1,0.03,-4.2,7.6,"15:53:28",1
"17/12/12","16:10",0.0,5.0,50.7,1012.8,292.0,2.2,4.5,310.3,0.01,-4.3,7.7,"16:09:54",1
"17/12/12","16:20",0.0,4.9,50.9,1012.6,294.9,3.2,5.1,316.4,0.00,-4.4,7.6,"16:14:42",1
"17/12/12","16:30",0.0,4.6,51.3,1012.6,290.4,2.2,3.7,257.8,0.00,-4.5,7.4,"16:20:58",1
"17/12/12","16:40",0.0,4.4,52.5,1012.3,290.2,2.0,2.8,323.3,0.00,-4.4,7.3,"16:35:06",1
"17/12/12","16:50",0.0,4.3,53.9,1012.3,302.9,1.8,2.7,331.4,0.00,-4.2,7.4,"16:46:16",1
"17/12/12","17:00",0.0,3.9,58.0,1012.1,314.5,1.6,2.7,329.5,0.00,-3.6,7.2,"16:55:10",1
"17/12/12","17:10",0.0,3.7,59.4,1012.3,286.7,1.3,2.0,287.2,0.00,-3.4,7.1,"17:07:58",1
"17/12/12","17:20",0.0,3.6,61.4,1012.3,293.9,1.6,2.4,318.9,0.00,-3.1,7.2,"17:16:00",1
"17/12/12","17:30",0.0,3.7,58.8,1012.6,286.9,1.8,2.8,321.3,0.00,-3.6,7.4,"17:25:48",1
"17/12/12","17:40",0.0,3.9,56.4,1012.6,284.5,1.7,3.5,240.3,0.00,-3.9,7.0,"17:32:24",1
"17/12/12","17:50",0.0,3.9,56.4,1012.3,288.6,1.6,2.9,301.0,0.00,-3.9,6.9,"17:40:10",1
"17/12/12","18:00",0.0,3.4,60.6,1012.8,315.4,1.1,2.0,321.2,0.00,-3.4,7.1,"17:58:56",1
"17/12/12","18:10",0.0,3.3,60.3,1012.6,276.8,1.7,3.2,241.9,0.00,-3.6,6.7,"18:05:30",1
"17/12/12","18:20",0.0,3.7,57.6,1012.3,269.6,2.2,4.7,254.4,0.00,-3.8,7.0,"18:13:50",1
"17/12/12","18:30",0.0,3.6,56.3,1012.6,278.9,2.6,4.8,240.1,0.00,-4.2,6.9,"18:28:28",1
"17/12/12","18:40",0.0,3.5,56.5,1012.6,272.2,2.6,5.7,236.1,0.00,-4.3,6.8,"18:35:30",1
"17/12/12","18:50",0.0,3.4,56.9,1013.0,280.5,2.1,4.0,307.7,0.00,-4.3,6.7,"18:41:28",1
"17/12/12","19:00",0.0,3.2,57.1,1012.8,278.9,2.1,3.6,327.2,0.00,-4.4,6.8,"18:59:28",1
"17/12/12","19:10",0.0,3.0,57.8,1013.0,270.9,1.8,4.0,317.4,0.00,-4.5,6.6,"19:00:40",1
"17/12/12","19:20",0.0,3.0,57.5,1012.6,275.3,2.2,3.2,275.5,0.00,-4.5,6.5,"19:14:32",1
"17/12/12","19:30",0.0,2.8,58.6,1012.6,280.8,2.0,3.7,325.0,0.00,-4.5,6.5,"19:25:44",1
"17/12/12","19:40",0.0,2.8,59.5,1012.6,289.4,2.0,3.3,264.0,0.00,-4.3,6.6,"19:33:12",1
"17/12/12","19:50",0.0,2.6,60.3,1012.1,271.4,1.6,2.2,261.0,0.00,-4.3,6.6,"19:47:48",1
"17/12/12","20:00",0.0,2.6,59.8,1012.6,272.7,2.2,3.5,238.4,0.00,-4.4,6.5,"19:52:24",1
"17/12/12","20:10",0.0,2.5,60.9,1012.8,292.8,2.1,3.6,303.2,0.00,-4.2,6.4,"20:07:36",1
"17/12/12","20:20",0.0,2.6,60.6,1012.8,297.5,2.5,5.2,313.0,0.00,-4.2,6.5,"20:13:50",1
"17/12/12","20:30",0.0,2.4,60.5,1012.8,293.6,2.3,4.4,322.9,0.00,-4.4,6.3,"20:21:38",1
"17/12/12","20:40",0.0,2.6,59.7,1013.0,281.6,2.5,4.3,259.1,0.00,-4.4,6.2,"20:30:42",1
"17/12/12","20:50",0.0,2.5,60.0,1013.3,289.6,2.5,4.3,292.2,0.00,-4.4,6.1,"20:49:58",1
"17/12/12","21:00",0.0,2.4,59.6,1013.0,274.2,2.6,5.6,297.9,0.00,-4.6,6.4,"20:52:50",1
"17/12/12","21:10",0.0,2.3,60.0,1012.8,270.1,2.6,5.1,326.5,0.00,-4.6,5.8,"21:09:10",1
"17/12/12","21:20",0.0,2.2,60.3,1013.0,271.9,2.8,5.9,317.4,0.00,-4.6,5.9,"21:11:00",1
"17/12/12","21:30",0.0,2.0,60.9,1012.8,280.6,2.5,4.0,285.1,0.00,-4.7,6.0,"21:28:38",1
"17/12/12","21:40",0.0,1.8,61.8,1012.6,278.3,2.3,3.6,271.9,0.00,-4.7,6.2,"21:36:56",1
"17/12/12","21:50",0.0,1.8,61.9,1012.8,282.0,3.0,4.9,316.7,0.00,-4.7,6.0,"21:42:00",1
"17/12/12","22:00",0.0,1.5,62.9,1012.8,298.0,2.3,4.2,322.4,0.00,-4.8,6.1,"21:50:32",1
"17/12/12","22:10",0.0,1.4,63.9,1013.3,291.4,2.6,4.5,327.4,0.00,-4.6,5.7,"22:02:56",1
"17/12/12","22:20",0.0,1.3,64.6,1013.0,308.2,2.7,5.1,324.7,0.00,-4.6,5.8,"22:19:52",1
"17/12/12","22:30",0.0,1.1,65.0,1012.8,285.6,2.5,4.4,316.2,0.00,-4.7,5.7,"22:24:16",1
"17/12/12","22:40",0.0,1.1,66.2,1013.0,291.8,2.1,4.4,335.5,0.00,-4.5,5.7,"22:38:26",1
"17/12/12","22:50",0.0,1.2,66.7,1012.8,286.8,2.2,3.5,299.1,0.00,-4.3,5.6,"22:47:52",1
"17/12/12","23:00",0.0,1.4,66.2,1013.3,276.7,2.7,5.8,276.5,0.00,-4.2,5.8,"22:58:12",1
"17/12/12","23:10",0.0,1.6,65.5,1013.3,289.5,3.4,8.9,314.9,0.00,-4.1,5.6,"23:01:44",1
"17/12/12","23:20",0.0,1.5,65.7,1013.3,289.4,2.8,5.2,309.6,0.00,-4.2,5.6,"23:16:32",1
"17/12/12","23:30",0.0,1.4,66.3,1013.3,283.3,2.8,5.1,311.6,0.00,-4.2,5.6,"23:22:40",1
"17/12/12","23:40",0.0,1.2,66.9,1013.3,281.0,2.5,4.0,272.4,0.00,-4.2,5.7,"23:37:52",1
"17/12/12","23:50",0.0,1.2,67.6,1013.3,298.8,2.7,4.5,337.0,0.00,-4.1,5.5,"23:49:54",1
"17/12/12","24:00",0.0,1.4,67.5,1012.6,302.4,3.6,5.6,316.1,0.00,-3.9,5.4,"23:58:46",1
